CST,Max TemperatureF,Mean TemperatureF,Min TemperatureF,Max Dew PointF,MeanDew PointF,Min DewpointF,Max Humidity, Mean Humidity, Min Humidity, Max Sea Level PressureIn, Mean Sea Level PressureIn, Min Sea Level PressureIn, Max VisibilityMiles, Mean VisibilityMiles, Min VisibilityMiles, Max Wind SpeedMPH, Mean Wind SpeedMPH, Max Gust SpeedMPH,PrecipitationIn, CloudCover, Events, WindDirDegrees
2012-11-1,69,54,39,45,40,32,85,62,39,30.03,29.96,29.88,10,10,10,16,8,22,0.00,0,,245
2012-11-2,61,51,41,41,36,34,79,59,39,30.04,29.97,29.91,10,10,10,17,9,21,0.00,0,,86
2012-11-3,57,48,39,38,37,36,82,67,51,30.21,30.09,29.90,10,10,10,17,8,21,0.00,0,,360
2012-11-4,58,45,32,40,36,31,96,72,47,30.26,30.19,30.10,10,7,2,15,5,20,T,3,Snow,135
2012-11-5,47,46,44,45,43,40,100,88,76,30.10,30.04,29.97,10,4,2,14,7,16,0.18,8,Rain,22
2012-11-6,58,50,42,43,40,34,100,73,46,30.09,30.04,29.95,10,7,2,20,8,30,0.00,7,,280
2012-11-7,53,44,35,36,34,32,82,64,46,30.18,30.13,30.04,10,10,10,8,8,12,0.00,1,,325
2012-11-8,67,51,34,39,36,31,89,62,34,30.18,30.06,29.96,10,10,10,16,10,21,0.00,0,,154
2012-11-9,75,63,50,60,51,40,73,66,58,29.97,29.89,29.81,10,10,10,22,14,26,0.00,0,,177
2012-11-10,76,69,62,55,53,47,73,57,41,29.88,29.83,29.77,10,10,10,32,20,44,0.00,0,,185
2012-11-11,68,50,31,58,44,23,100,82,63,30.23,29.90,29.69,10,6,1,29,14,38,1.18,7,Rain-Snow-Thunderstorm,295
2012-11-12,45,36,26,24,21,18,75,58,40,30.46,30.38,30.25,10,10,10,23,8,29,0.00,0,,251
2012-11-13,56,42,27,31,27,21,78,57,35,30.51,30.45,30.38,10,10,10,13,7,17,0.00,0,,180
2012-11-14,57,45,33,31,27,24,64,47,30,30.45,30.38,30.32,10,10,10,10,6,26,0.00,0,,177
2012-11-15,57,46,34,37,31,24,70,55,40,30.40,30.35,30.31,10,10,10,8,4,10,0.00,0,,194
2012-11-16,61,47,33,39,36,33,85,63,40,30.47,30.42,30.39,10,9,5,7,3,8,0.00,0,,109
2012-11-17,63,50,36,35,31,28,76,52,27,30.46,30.39,30.33,10,10,10,15,9,18,0.00,0,,151
2012-11-18,66,52,38,35,30,24,65,46,26,30.34,30.28,30.21,10,10,10,18,9,23,T,1,Rain,168
2012-11-19,62,56,49,49,46,35,93,72,50,30.22,30.15,30.09,10,10,10,20,11,24,0.13,4,Rain,192
2012-11-20,63,53,42,47,44,41,96,76,56,30.23,30.17,30.09,10,8,6,13,6,15,0.00,0,,289
2012-11-21,68,53,37,48,40,36,96,69,42,30.25,30.19,30.05,10,7,1,14,9,20,0.00,0,,191
2012-11-22,71,59,47,51,43,35,67,57,47,30.23,30.00,29.88,10,10,10,30,15,39,0.01,2,,220
2012-11-23,47,36,25,34,22,15,73,54,34,30.45,30.38,30.24,10,10,10,26,12,33,0.00,1,,307
2012-11-24,44,33,22,23,19,14,74,57,40,30.42,30.23,29.96,10,10,10,17,8,23,0.00,0,,213
2012-11-25,57,47,36,32,28,22,76,56,35,30.06,29.97,29.92,10,10,10,24,9,31,0.00,0,,314
2012-11-26,43,34,24,29,25,18,82,66,49,30.47,30.27,30.07,10,10,10,23,12,29,0.00,3,,24
2012-11-27,40,29,17,21,17,13,81,61,40,30.51,30.41,30.34,10,10,9,12,5,16,0.00,0,,238
2012-11-28,52,41,29,30,26,21,75,58,41,30.46,30.36,30.23,10,10,9,13,6,25,0.00,0,,204
2012-11-29,65,51,36,42,34,28,76,60,43,30.22,30.11,30.02,10,10,10,22,11,26,0.00,0,,194
2012-11-30,64,55,45,46,40,32,86,67,48,30.11,30.07,30.04,10,10,9,18,8,25,0.00,0,,204